STARLINK-5709, 55621

Orbit data source: Space-Track

STARLINK-5709, 55621 is a payload satellite owned by SpaceX/Seattle (US) in LEO that was launched on Sun, 12 Feb 2023 UTC via an FALCON 9 launch vehicle from the Air Force Eastern Test Range (AFETR). Payload-class satellites include a variety of spacecraft equipped with specific instruments for various scientific and technological missions. These include communications satellites like Starlink; space stations such as the ISS; scientific satellites like the Hubble; Earth observation satellites from companies like Planet Labs, Umbra, and HawkEye 360; GPS; miniature CubeSats for education and research; and military/defense satellites.

Loading next visibility...
Identifier
55621, 2023-020BE
Orbit
LEO
Country
Flag of USUS
Related business
Manufacturer
SpaceX/Seattle
Mission
Operational Commercial Communications
Bus & Motor
STARLINK, Unknown motor
Mass
305 kg wet, ~290 kg dry
Launch date (UTC)
2023-02-12 (3 years ago)
Launch vehicle
FALCON 9
Launch site
Air Force Eastern Test Range (AFETR)
Object type
Payload
Rocket body
Debris
Shape & HBR
Box + 1 Pan, 10.1 m
Radar Cross Section
13.562 m², Large (>1 m²)

Expand to show TLE details & history
Last TLE update: 2 days ago

TLE from 2 days ago
0 STARLINK-5709
1 55621U 23020BE  26171.22592119  .00000267  00000-0  19222-4 0  9999
2 55621  43.0061 134.9220 0001668 282.8013  77.2653 15.27576833184720
Epoch: 2026-06-20T05:25Z
TLE epoch observation values (Epoch: 2026-06-20T05:25:19.590Z)
Latitude
0.00002°
Longitude
145.1468°
Altitude
482.583 km
Speed
7.626 km/s
True Right ascension
08h 59m 41s
True Declination
0° 00' 00"
Sunlit
Object was in daylight at epoch
Visualization orbit readout
Latitude
Unknown
Longitude
Unknown
Altitude
Unknown
Speed
Unknown
Apparent Right ascension
Unknown
Apparent Declination
Unknown
Sunlit
N/A
Visualization observer readout
Local Sidereal Time
21:57:37
Azimuth
Unknown
Elevation
Unknown
Doppler factor
Unknown
Orbital elements
Apogee altitude
486.147 km
Perigee altitude
483.858 km
Semi-major axis
6,863.14 km
Eccentricity
0.00017
Inclination
43.0061°
RAAN
134.922°
Arg. of periapsis
282.8013°
True anomaly
77.28394°
Mean anomaly
77.2653°
Eccentric anomaly
77.27462°
Mean motion
3.81732 °/min
Orbital period
94.31 mins
BSTAR
0.000019222
Loading maneuver chart data...
Computing Atmospheric mass density...
Loading historical data...
Loading historical data...
Loading historical data...
Loading historical data...
Loading historical data...
Loading historical data...
Loading historical data...

Documentation

Showing up to 5 results
|